User: anonymous   Login
Location: Mount Kobau Star Party
(49.1167°N, 119.7333°W)
Time: 06:24:52
(UTC-07:00)
Language:

TSX-5 - Orbit

View from above orbital plane
View from above orbital plane
View from above satellite
View from above satellite

Ground track
Ground track

The orbit data is extracted from the following two-line orbital elements,

1 26374U 00030A   17227.79920321  .00002298  00000-0  19822-3 0  9993
2 26374  68.9320  19.5477 0650200 207.0109 149.5742 14.05150531864484
Epoch (UTC): 15 August 2017 19:10:51
Eccentricity: 0.0650200
inclination: 68.9320°
perigee height: 404 km
apogee height: 1347 km
right ascension of ascending node: 19.5477°
argument of perigee: 207.0109°
revolutions per day: 14.05150531
mean anomaly at epoch: 149.5742°
orbit number at epoch: 86448

The dashed part of the orbit path shows where the satellite is in the earth's shadow,  

DLR